Location: Bauerbach
(50.4985°N, 10.3912°E)
Time: 09:28:00
(UTC+00:00)

ARIANE 6 FM1 Upper Stage - Pass Details

Date: 13 January 2026
Orbit: 522 x 608 km, 62.0° (Epoch: 16 February)

Event Time Altitude Azimuth Distance (km) Brightness Sun altitude
Exits shadow 05:13:13 38° 239° (WSW) 818 3.1 -18.6°
Maximum altitude 05:13:22 38° 233° (SW) 816 3.1 -18.5°
Drops below altitude 10° 05:17:06 10° 165° (SSE) 1,782 5.6 -17.9°
Sets 05:19:24 0° 157° (SSE) 2,681 6.7 -17.6°
